Regional Weather Roundup
Issued by NWS

Home | Current Version | Previous Version | Text Only | Print | Product List | Glossary Off
Versions: 1 2 3 4 5 6 7 8 9 10 11 12 13 14 15 16 17 18 19 20 21 22 23 24 25 26 27 28 29 30 31 32 33 34 35 36 37 38 39 40 41 42 43 44 45 46 47 48 49 50

000
ASUS43 KMKX 251600
RWRWI

WISCONSIN REGIONAL WEATHER ROUNDUP
NATIONAL WEATHER SERVICE MILWAUKEE/SULLIVAN WI
1100 AM CDT WED MAY 25 2016

NOTE: "FAIR" INDICATES FEW OR NO CLOUDS BELOW 12,000 FEET WITH NO
SIGNIFICANT WEATHER AND/OR OBSTRUCTIONS TO VISIBILITY.

WIZ001-002-006>008-014>016-023>028-251700-
NORTHWEST WISCONSIN

CITY           SKY/WX    TMP DP  RH WIND       PRES   REMARKS
SUPERIOR ARPT  FOG       45  45 100 E15G22    30.03F VSB 3/4
ASHLAND        FOG       52  52 100 NE9       30.04S VSB 1
HAYWARD        CLOUDY    69  57  65 E7        29.99S
SIREN          CLOUDY    66  58  74 NE7       29.94F
CUMBERLAND     CLOUDY    72  55  56 SE9       29.95S
RICE LAKE      CLOUDY    74  58  57 E12G17    29.96S
CHETEK         CLOUDY    74  61  63 SE7       29.95S
LADYSMITH      CLOUDY    73  61  66 E10       29.99F
EAU CLAIRE     NOT AVBL
MENOMONIE      CLOUDY    77  59  53 E14       29.92F
NEW RICHMOND   CLOUDY    72  57  59 S9        29.93S
OSCEOLA        CLOUDY    73  60  63 SE9       29.94S
$$

WIZ003>005-009-010-017-018-251700-
NORTH CENTRAL WISCONSIN

CITY           SKY/WX    TMP DP  RH WIND       PRES   REMARKS
MANITOWISH WTR NOT AVBL
ARBOR VITAE    MOSUNNY   64  58  79 E9        30.04F
WOODRUFF       MOSUNNY   64  58  79 E9        30.04F
RHINELANDER    CLOUDY    62  57  83 E10       30.06S
EAGLE RIVER      N/A     64  57  79 E8        30.05F
LAND O LAKES   CLOUDY    61  56  84 E7        30.07S
PHILLIPS       PTSUNNY   67  59  76 E10       30.01S
TOMAHAWK       CLOUDY    66  60  81 E5        30.04S
MEDFORD        CLOUDY    69  62  79 E10       30.01S
MERRILL        CLOUDY    64  61  88 E10       30.04S
$$

WIZ029-030-035-036-043>047-251700-
CENTRAL WISCONSIN

CITY           SKY/WX    TMP DP  RH WIND       PRES   REMARKS
WAUSAU         CLOUDY    65  58  78 E14       30.01S
MOSINEE        CLOUDY    64  61  88 E10G17    30.03S
MARSHFIELD     CLOUDY    71  60  68 E15       29.98S
STEVENS POINT  CLOUDY    61  56  84 E12       30.02S
WAUPACA        CLOUDY    67  58  72 NE8       30.03S
WAUTOMA        CLOUDY    69  59  70 NE13      30.00S
WISC RAPIDS    PTSUNNY   70  57  63 E9        30.01R
CAMP DOUGLAS   NOT AVBL
$$

WIZ011>013-019>022-031-037>040-048>050-251700-
NORTHEAST WISCONSIN

CITY           SKY/WX    TMP DP  RH WIND       PRES   REMARKS
ANTIGO         CLOUDY    60  58  92 E9        30.06S
SHAWANO        CLOUDY    65  59  82 E7        30.05S
OCONTO         CLOUDY    60  59  97 E7        30.05F
STURGEON BAY   NOT AVBL
GREEN BAY      CLOUDY    62  57  83 NE10      30.04S
MANITOWOC      NOT AVBL
APPLETON       PTSUNNY   63  55  77 E10       30.01F
CLINTONVILLE   CLOUDY    63  59  88 E7        30.04S
OSHKOSH        CLOUDY    64  57  78 E10       30.01F
$$

WIZ032>034-041-042-053>061-251700-
SOUTHWEST WISCONSIN

CITY           SKY/WX    TMP DP  RH WIND       PRES   REMARKS
LA CROSSE      CLOUDY    72  65  78 SE6       29.90F
SPARTA         CLOUDY    76  61  60 SE9       29.96R
VIROQUA        CLOUDY    73  62  69 S9        29.96F
BOSCOBEL       PTSUNNY   80  63  55 CALM      29.91F HX  81
PRAIRIE DU CHI CLOUDY    72  62  71 E6        29.90F
PLATTEVILLE    CLOUDY    77  64  65 E12       29.94F
$$

WIZ056-057-062-063-064-067-068-251700-
SOUTH CENTRAL WISCONSIN

CITY           SKY/WX    TMP DP  RH WIND       PRES   REMARKS
REEDSBURG      PTSUNNY   74  64  70 S3        29.97S
BARABOO/DELLS  PTSUNNY   76  61  59 S7        29.98R
LONE ROCK      NOT AVBL
MINERAL POINT  MOSUNNY   79  64  61 SE6       29.96F HX  81
MADISON        CLOUDY    77  64  64 SE7       29.96F
MIDDLETON      CLOUDY    78  63  58 S8        29.98F HX  80
WATERTOWN      MOSUNNY   78  67  70 SE6       29.98F
MONROE         MOSUNNY   77  64  65 S14       29.98S
JANESVILLE     SUNNY     81  64  57 S8        29.98S HX  82
$$

WIZ051-052-058>065-066-070>072-251700-
SOUTHEAST WISCONSIN

CITY           SKY/WX    TMP DP  RH WIND       PRES   REMARKS
MILWAUKEE      CLOUDY    59  52  77 N9        30.02S
WAUKESHA       SUNNY     72  59  64 E7        30.01F
MILWAUKEE/TIMM SUNNY     64  54  68 NE5       30.02F
RACINE         CLOUDY    64  54  69 N9        30.02S
BURLINGTON     MOSUNNY   79  61  55 SW6       29.99S HX  80
KENOSHA        CLOUDY    80  65  59 S8        29.98F HX  82
FOND DU LAC    PTSUNNY   69  60  73 NE13      30.00F
SHEBOYGAN      SUNNY     60  54  80 NE16      30.03F
WEST BEND      CLOUDY    68  59  73 NE10      30.01F
JUNEAU         CLOUDY    77  63  61 E12       29.99F
$$

LSZ147-162-251700-
LAKE SUPERIOR

STATION/POSITION TIME  TEMP    WIND        PRES    WAVE
                       AIR SEA DIR/SP/G            HT/PER
                 (UTC) (F)     (DEG/KT/KT) (MB)    (FT/S)
W MID LAKE BUOY  1450   40 38   60/ 14/ 16 1019.1F   2/ 3
DEVILS ISLAND    1500   44      60/ 21/ 23 1018.2F
PORT WING        1500   44      40/ 14/ 15 1017.3S
SAXON HARBOR     1500   46     350/  3/  4 1016.9
$$

LMZ867-665-643>646-251700-
LAKE MICHIGAN

STATION/POSITION TIME  TEMP    WIND        PRES    WAVE
                       AIR SEA DIR/SP/G            HT/PER
                 (UTC) (F)     (DEG/KT/KT) (MB)    (FT/S)
CHAMBERS ISLAND  1500   53      20/  8/  9 1018.3
N MID LAKE BUOY  1450   48 45  340/  6/  8 1018.5R   1
NORTHPORT PIER   1500   52     340/  8/ 10 1018.3S
SISTER BAY       1504   56      10/ 13/ 15   N/A
ALGOMA LAKESHORE 1417           60/ 11/ 13   N/A
KEWAUNEE LAKESHO 1500   53      30/  6/ 10 1016.9F
SHEBOYGAN LAKESH 1500   49     360/  9/  9 1018.0R
PORT WASHINGTON  1500   56      40/ 11/ 15 1017.9
S MID LAKE BUOY  1450   54 49  150/  6/  6 1016.2F   1
KENOSHA   LAKESH 1500   63     160/  8/  9 1015.6F
$$

TC  - TEMPERATURE IN CELSIUS
VSB - VISIBILITY IN STATUTE MILES
WCI - WIND CHILL INDEX
HX  - HEAT INDEX




USA.gov is the U.S. government's official web portal to all federal, state and local government web resources and services.